Lid_Strength_Index
2 4 5 8 13 14 16 13 11 10 9 9 6 8 9 8 10 13 2 1 0 0 -1 -1 -2 -2 -2 -2 -2 -1 -2 -2 -2 -2 -2 -2 -2 -1 -1 -1 -1 -1 -2 -2 -2 -1 -1 -1 -1
3 4 7 10 13 17 16 13 10 9 7 7 7 7 8 9 5 4 3 0 -0 -0 -1 -1 -1 -2 -2 -1 -1 -1 -1 -1 -1 -1 -1 -1 -1 -1 -0 -1 -1 -1 -1 -2 -1 -2 -2 -1 -1
3 6 11 12 14 17 16 13 9 8 7 8 8 6 7 8 4 3 1 0 -0 -0 -1 -1 -1 -2 -1 -1 -1 -1 -1 -0 -1 -0 -0 -0 -0 -0 -0 -0 -0 -0 -1 -2 -2 -2 -1 -1 -1
5 5 8 12 16 16 15 12 8 9 7 5 7 9 5 3 3 2 0 -0 0 -0 -1 -1 -1 -1 -1 -1 -0 -0 -0 0 0 0 0 0 0 1 0 0 -0 -0 -1 -1 -1 -1 -1 -0 -0
5 7 12 13 13 15 13 12 11 9 8 7 7 9 7 3 1 1 0 -0 1 1 0 0 -1 -1 -0 0 0 0 0 1 1 1 1 1 1 1 1 1 0 0 -0 -1 -1 -1 -1 -1 -0
8 8 14 14 13 14 12 12 12 8 7 7 8 8 7 2 2 1 0 1 1 2 2 2 2 1 1 1 1 1 2 2 2 2 1 1 1 1 1 1 1 0 -0 -0 -1 -1 -1 -1 -0
9 11 13 13 13 14 13 12 12 11 9 8 6 9 6 4 2 1 1 2 2 3 3 3 4 3 2 2 3 2 2 2 2 2 2 2 2 2 2 2 1 0 -0 -0 -0 -1 -0 -1 -0
9 9 13 13 15 15 12 12 12 8 8 5 5 9 8 4 2 2 2 2 2 2 2 2 5 5 6 5 3 3 2 2 3 3 2 2 2 2 2 3 1 1 0 -0 -0 -0 0 0 0
7 12 14 12 14 14 12 13 10 6 9 7 6 6 6 2 2 2 3 2 2 2 2 2 4 6 6 6 5 4 3 3 4 4 4 5 5 5 4 3 2 1 1 1 0 1 1 1 1
9 12 12 12 13 14 12 12 13 9 9 8 7 6 6 5 3 3 3 3 3 2 2 2 5 7 6 5 5 5 5 6 6 6 6 5 5 5 5 5 4 3 3 2 1 1 2 3 4
9 12 12 12 10 12 11 12 12 11 13 11 9 8 6 6 6 6 5 4 2 2 2 4 5 6 7 6 6 6 6 6 6 6 6 6 6 6 7 7 6 4 4 5 4 4 4 4 4
10 10 11 10 11 11 12 11 12 12 12 9 9 7 7 7 7 7 6 5 3 2 3 4 5 6 6 6 6 6 6 7 6 6 6 7 7 7 7 7 5 5 5 5 5 5 5 5 4
10 10 10 10 11 11 10 12 11 12 10 9 8 8 8 7 8 7 6 4 2 3 4 4 4 6 6 6 7 7 7 7 6 6 6 7 7 6 5 5 6 5 6 6 6 6 5 5 4
9 10 11 10 11 11 11 12 12 11 10 9 8 10 8 8 8 6 5 4 4 5 6 4 4 4 5 7 7 7 7 6 6 6 6 5 5 5 5 5 5 5 5 5 6 6 6 5 4
9 11 11 11 11 12 11 13 13 11 10 10 11 11 11 9 8 8 7 7 6 6 6 5 3 3 4 6 7 7 6 6 6 5 5 4 4 5 5 5 5 4 4 4 6 6 6 6 4
11 11 14 11 11 11 11 14 12 11 11 11 11 12 12 11 11 10 8 8 7 6 6 5 3 3 4 5 6 7 7 7 7 5 5 5 5 5 5 4 4 3 3 4 4 5 7 7 6
11 15 14 13 11 12 11 13 11 10 11 12 12 12 12 12 11 10 9 8 8 7 6 6 4 4 4 4 5 6 6 6 6 7 7 6 6 5 5 5 5 4 5 6 6 6 7 8 7
15 15 14 14 11 11 13 13 12 11 11 12 12 12 12 12 11 11 10 9 9 8 7 6 6 5 5 5 5 5 5 5 7 7 7 7 7 7 6 6 7 6 7 7 7 7 7 8 8
11 13 14 12 10 12 12 12 12 11 12 12 12 12 12 12 11 11 11 11 10 10 9 8 7 6 5 6 6 5 6 6 7 7 7 8 8 8 8 7 7 7 7 7 7 8 8 8 8
11 13 14 11 11 11 12 12 10 11 11 11 11 11 11 12 12 11 11 11 11 10 10 9 8 8 8 7 7 6 6 7 7 8 8 9 9 9 8 8 8 8 8 8 8 9 9 9 8
12 13 13 13 12 12 14 15 13 11 10 10 10 10 10 10 11 11 11 11 11 11 11 10 10 9 8 7 7 8 8 8 9 10 10 10 10 10 10 10 9 9 9 8 10 10 10 10 9
14 10 12 12 13 18 13 19 16 12 11 11 10 10 10 10 10 10 11 12 12 12 12 11 11 10 9 7 8 9 9 10 10 10 11 11 11 11 11 10 11 11 11 12 12 12 11 12 13
12 11 12 12 14 14 16 19 16 13 12 12 11 10 10 10 10 11 11 11 12 12 12 11 11 11 10 9 8 9 10 10 11 10 11 12 12 12 11 12 13 13 12 13 13 14 14 13 13
10 12 12 13 15 21 16 17 18 15 12 11 11 10 10 10 10 10 10 11 12 12 12 12 12 12 12 11 10 10 11 12 12 12 13 13 13 13 13 13 14 14 13 13 13 14 15 14 14
11 14 20 21 19 20 15 17 16 12 11 11 11 11 10 10 10 11 12 12 12 12 12 12 12 13 13 13 13 13 12 12 13 13 14 14 15 15 15 14 15 14 14 13 14 15 15 15 15
12 13 18 22 21 19 16 18 15 12 12 12 12 11 10 10 10 11 13 13 13 13 13 13 14 14 14 14 14 14 14 14 14 15 15 15 15 15 15 15 15 14 14 15 15 15 15 15 16
12 14 11 16 18 19 18 16 13 14 14 13 13 12 11 11 11 12 13 13 13 13 13 14 14 15 15 15 15 15 15 15 16 16 15 15 15 15 15 15 15 15 15 15 15 15 16 16 16
11 10 15 16 22 22 19 18 16 15 14 14 14 13 13 13 13 13 13 14 14 14 14 14 15 16 16 16 17 17 17 16 16 16 16 16 15 16 16 16 16 16 16 15 15 16 16 17 16
12 13 12 13 15 19 20 18 14 14 13 13 14 12 13 13 13 13 14 14 14 15 15 16 16 17 17 17 18 17 17 17 16 16 16 16 16 16 16 16 16 15 16 16 16 17 17 17 17
10 12 11 16 17 16 16 17 12 12 12 12 12 12 12 12 13 14 14 15 16 16 17 17 17 17 18 18 18 18 17 17 18 17 16 16 16 16 16 16 16 16 16 17 17 18 18 18 18